TV
NORAD ID: 26985
Int'l Code: 2001-052A
Perigee: 35,787.8 km
Apogee: 35,801.5 km
Inclination: 0.0 °
Period: 1,436.1 minutes
Semi major axis: 42165 km
Launch date: November 27, 2001
Source: United States (US)
Comments: Direct broadcasting; 48 Ku-band; 300 local TV channels to 41 metropolitan communities through 11 C-band transponders.
Two Line Element Set (TLE):
1 26985U 01052A 13169.40555466 .00000000 00000-0 10000-3 0 819
2 26985 000.0157 262.7258 0001633 151.7553 257.1519 01.00268569 42392
Source: AFSPC
NASA's NSSDC Master Catalog entry for DIRECTV 4S